Location: ???? ??? ???????
(31.0298°N, 31.5757°E)
Time: 06:42:05
(UTC+00:00)

Daily predictions for brighter satellites

Satellite Brightness Start Highest point End
(mag) Time Altitude Azimuth Time Altitude Azimuth Time Altitude Azimuth
Cosmos 1328 3.8 15:25:54 10° N 15:29:52 87° W 15:33:49 10° S
CZ-4B R/B 3.3 15:24:17 10° SSE 15:29:55 89° ENE 15:35:30 10° NNW
Cosmos 1606 Rocket 3.6 15:26:42 10° S 15:31:02 85° W 15:35:26 10° N
Cosmos 1656 3.7 15:30:05 10° S 15:35:28 59° ESE 15:40:57 10° NNE
CZ-4B R/B 1.9 15:33:29 10° N 15:36:37 58° WNW 15:39:39 10° SSW
Okean-O 4.1 15:34:26 10° ESE 15:37:10 16° ENE 15:39:55 10° NNE
OAO 2 Rocket 3.4 15:32:32 10° WSW 15:37:34 79° NNW 15:42:31 10° ENE
BREEZE-M DEB (TANK) 3.0 15:33:37 10° SSW 15:37:49 39° SE 15:39:56 10° ENE
AQUARIUS 4.2 15:34:15 10° SSE 15:38:44 89° WSW 15:43:15 10° NNW
H-2A R/B 3.9 15:40:09 10° E 15:42:04 12° ENE 15:44:01 10° NE
Delta 142 4.0 15:38:12 10° W 15:42:33 65° S 15:47:59 10° E
Cosmos 1400 Rocket 2.9 15:40:16 10° S 15:44:20 64° E 15:48:24 10° NNE
SKYMED 2 3.6 15:42:42 10° NNE 15:47:01 64° E 15:51:19 10° S
Atlas Centaur 2 3.3 15:38:53 10° WSW 15:47:03 70° SSE 15:54:57 12° E
CZ-4 R/B 2.7 15:46:23 10° ESE 15:49:01 18° ENE 15:51:39 10° NNE
Meteor 2-16 Rocket 4.4 15:44:22 10° N 15:50:24 61° E 15:56:24 10° SSE
Cosmos 2227 Rocket 3.4 15:46:50 10° NNE 15:51:05 21° ENE 15:55:18 10° ESE
Milstar 3 3.0 15:44:44 10° WSW 15:52:12 70° S 15:58:19 13° E
Cosmos 1689 Rocket 1.8 15:50:18 10° NNE 15:53:10 75° ESE 15:56:01 10° S
Geosat 4.4 15:49:20 10° NE 15:54:05 41° ESE 15:58:46 10° S
BREEZE-M DEB (TANK) 3.3 15:51:44 10° SW 15:54:43 73° SE 16:03:01 10° NE
PSLV R/B 3.9 15:51:57 10° NNE 15:56:05 67° ESE 16:00:09 10° S
Cosmos 2058 4.3 15:55:07 10° NE 15:57:45 16° ENE 15:58:48 15° E
NOSS 3-3 (A) 3.8 15:53:15 10° SSW 15:58:45 66° ESE 16:04:47 10° NE
NOSS 3-3 (C) 3.8 15:53:20 10° SSW 15:58:53 65° ESE 16:04:56 10° NE
Cosmos 1697 Rocket 2.9 15:54:25 10° S 15:59:45 48° ESE 16:05:07 10° NNE
Cosmos 1892 3.8 15:57:09 10° NNE 16:00:21 24° E 16:03:32 10° SE
IRS-1C Rocket 4.1 15:57:25 10° SSE 16:02:33 57° ENE 16:07:42 10° N
Cosmos 1300 4.4 15:59:57 10° SSW 16:03:27 35° W 16:06:58 10° NNW
Cosmos 2058 Rocket 3.3 15:59:47 10° S 16:04:14 76° W 16:08:44 10° N
OAO 3 Rocket 3.1 16:00:19 10° WNW 16:05:08 75° NNE 16:08:31 19° E
CZ-2D R/B 3.5 16:04:56 10° SSE 16:08:33 44° ENE 16:12:11 10° N
Centaur D-1AR AC-40 4.3 15:57:14 10° W 16:08:35 26° SW 16:12:44 10° SSE
Cosmos 1953 Rocket 3.8 16:04:41 10° N 16:09:06 76° W 16:13:32 10° S
NOAA 11 4.4 16:03:44 10° S 16:09:10 77° WSW 16:14:37 10° NNW
Hubble Space Telescope 3.4 16:08:14 10° SW 16:10:19 14° SSW 16:12:23 10° S
Cosmos 1315 Rocket 3.0 16:11:44 10° SSE 16:15:27 44° E 16:19:15 10° NNE
Cosmos 1346 Rocket 3.7 16:15:17 10° NNE 16:18:27 28° ENE 16:18:27 28° ENE
Aureole 3 Rocket 3.9 16:17:16 10° SSW 16:20:35 45° W 16:24:56 10° N
Cosmos 1980 Rocket 2.7 16:17:17 10° S 16:22:25 37° ESE 16:25:26 21° NE
H-2A R/B 3.6 16:20:21 10° WSW 16:22:32 23° S 16:27:50 10° SE
S3M 3.8 16:19:57 10° S 16:26:00 72° E 16:32:06 10° N
Cosmos 968 Rocket 3.8 16:23:40 10° N 16:28:35 41° ENE 16:31:14 24° SE
Cosmos 2297 Rocket 2.1 16:25:37 10° NNW 16:31:13 61° ENE 16:36:47 10° SSE
In-Cosmos 22 Rocket 4.1 16:28:22 10° N 16:33:46 89° E 16:39:18 10° S
MOS 1 Rocket 3.3 16:29:10 10° NNE 16:33:58 65° E 16:39:01 10° S
Cosmos 1340 2.9 16:30:37 10° NNW 16:34:22 70° W 16:38:06 10° S
COSMO-SKYMED 1 4.4 16:31:07 10° N 16:34:57 31° WNW 16:38:46 10° SW
Cosmos 2360 4.1 16:32:34 10° SSW 16:38:17 83° ESE 16:44:01 10° NNE
ASTRO E2 2.5 16:37:10 10° W 16:41:08 87° N 16:41:37 67° ENE
YAOGAN 1 2.4 16:37:22 10° SSE 16:41:40 73° ENE 16:45:59 10° N
SL-08 ROCKET BODY 4.3 16:35:33 10° N 16:41:41 79° E 16:47:53 10° S
GPS 2-04 Rocket1 2.7 16:39:24 10° WSW 16:43:29 80° NNW 16:44:05 63° NE
CZ-2C R/B 3.2 16:41:48 10° SSE 16:47:37 80° ENE 16:53:21 10° N
Cosmos 1812 Rocket 3.4 16:44:22 10° S 16:48:47 89° E 16:53:11 10° N
Cosmos 1486 Rocket 3.9 16:43:29 10° NNW 16:48:48 72° ENE 16:52:13 22° SSE
Cosmos 2278 3.6 16:45:59 10° SSW 16:51:38 76° ESE 16:54:45 28° NNE
Cosmos 1455 2.9 16:48:17 10° SSW 16:51:56 52° W 16:55:39 10° N
Delta 2 Rocket 3.9 16:46:40 10° WNW 16:52:02 87° SSW 16:53:27 52° ESE
Cosmos 44 Rocket 3.5 16:49:49 10° SW 16:54:28 67° WNW 16:56:39 31° NNE
Cosmos 2219 3.6 16:55:44 10° NNW 17:01:25 65° WSW 17:07:05 10° S
Cosmos 2082 4.2 17:04:36 10° N 17:08:49 45° NNE 17:08:49 45° NNE
ARGOS 4.0 17:13:10 38° N 17:13:10 38° N 17:16:32 10° N
Okean-O 4.2 17:09:19 10° SSW 17:13:19 34° W 17:17:21 10° NNW
H-2A R/B 2.3 17:18:13 32° S 17:20:46 71° WSW 17:26:13 10° NNW
OAO 2 Rocket 4.1 17:17:45 10° WNW 17:21:37 45° NW 17:21:37 45° NW
CZ-4 R/B 3.6 17:20:42 10° SSW 17:23:51 23° W 17:26:58 10° NW
CSL-04 Rocket 4.1 17:26:01 26° S 17:29:03 61° WSW 17:34:33 10° NNW
Cosmos 2227 Rocket 3.3 17:29:57 10° NW 17:35:14 42° WSW 17:37:54 25° SSW
Atlas Centaur 2 2.9 17:28:29 10° W 17:37:06 87° S 17:37:32 82° ESE
H-2A R/B (2) 3.5 16:38:03 10° W 17:44:29 80° S 17:45:43 69° ESE
Cosmos 1980 Rocket 4.2 18:01:59 10° WSW 18:06:25 24° WNW 18:07:19 23° NW
Milstar 3 4.3 18:28:48 10° W 18:31:53 30° WSW 18:31:53 30° WSW
